Iowa Falls, IA

8:02 AM CST on November 24, 2017 (GMT -0600)
Iowa Falls Municipal

Weather History for KIFA - November, 2012

Change the Weather History Date:

Friday, November 23, 2012

  Actual Average Record
Temperature  
Mean Temperature 24 °F -  
Max Temperature 32 °F 38 °F 57 °F (1966)
Min Temperature 16 °F 22 °F -4 °F (1950)
Degree Days  
Heating Degree Days 41    
Moisture  
Dew Point 14 °F    
Average Humidity 62    
Maximum Humidity 79    
Minimum Humidity 46    
Precipitation  
Precipitation 0.00 in - - ()
Sea Level Pressure  
Sea Level Pressure 30.27 in    
Wind  
Wind Speed 25 mph (NW)    
Max Wind Speed 36 mph    
Max Gust Speed 44 mph    
Visibility 10 miles    
Events      
Averages and records for this station are not official NWS values.
T = Trace of Precipitation, MM = Missing Value Source: NWS Daily Summary

Daily Weather History Graph

Daily Weather History Graph

Search for Another Location

Airport or City:

Trip Planner

Search our weather history database for the weather conditions in past years. The results will help you decide how hot, cold, wet, or windy it might be!

Date:

Astronomy

Nov. 23, 2012 Rise Set
Actual Time 7:14 AM CST 4:44 PM CST
Civil Twilight 6:43 AM CST 5:15 PM CST
Nautical Twilight 6:09 AM CST 5:49 PM CST
Astronomical Twilight 5:35 AM CST 6:23 PM CST
Moon 2:03 PM CST (11/23) 2:29 AM CST (11/23)
Length of Visible Light 10h 31m
Length of Day
9h 29m
Waxing Gibbous, 80% of the Moon is Illuminated
Nov 23
Waxing Gibbous
Nov 28
Full
Dec 6
Last Quarter
Dec 13
New
Dec 19
First Quarter

Hourly Weather History & Observations

Time (CST) Temp. Windchill Dew Point Humidity Pressure Visibility Wind Dir Wind Speed Gust Speed Precip Events Conditions
12:15 AM 32.0 °F 18.6 °F 21.4 °F 65% 30.08 in 10.0 mi WNW 25.3 mph 29.9 mph N/A   Scattered Clouds
12:35 AM 32.0 °F 18.9 °F 21.0 °F 64% 30.08 in 10.0 mi WNW 24.2 mph 29.9 mph N/A   Mostly Cloudy
12:55 AM 32.0 °F 18.1 °F 20.8 °F 63% 30.09 in 10.0 mi WNW 27.6 mph 34.5 mph N/A   Mostly Cloudy
1:15 AM 32.4 °F 18.6 °F 20.7 °F 62% 30.09 in 10.0 mi WNW 27.6 mph 34.5 mph N/A   Overcast
1:35 AM 32.5 °F 19.9 °F 20.8 °F 62% 30.10 in 10.0 mi WNW 23.0 mph 40.3 mph N/A   Overcast
1:55 AM 32.4 °F 18.6 °F 20.8 °F 63% 30.10 in 10.0 mi WNW 27.6 mph 39.1 mph N/A   Overcast
2:15 AM 32.0 °F 17.9 °F 20.8 °F 63% 30.11 in 10.0 mi WNW 28.8 mph 33.4 mph N/A   Overcast
2:35 AM 31.6 °F 17.1 °F 20.3 °F 63% 30.12 in 10.0 mi WNW 29.9 mph 36.8 mph N/A   Overcast
2:55 AM 31.1 °F 16.9 °F 20.3 °F 64% 30.13 in 10.0 mi WNW 27.6 mph 39.1 mph N/A   Overcast
3:15 AM 30.4 °F 14.3 °F 18.3 °F 61% 30.14 in 10.0 mi WNW 35.7 mph 41.4 mph N/A   Overcast
3:35 AM 29.1 °F 14.2 °F 17.1 °F 61% 30.14 in 10.0 mi NW 27.6 mph 40.3 mph N/A   Mostly Cloudy
3:55 AM 27.1 °F 10.8 °F 15.1 °F 60% 30.16 in 10.0 mi NW 31.1 mph 41.4 mph N/A   Scattered Clouds
4:15 AM 26.2 °F 10.3 °F 15.3 °F 63% 30.16 in 10.0 mi NW 27.6 mph 40.3 mph N/A   Mostly Cloudy
4:35 AM 26.2 °F 9.8 °F 15.4 °F 64% 30.17 in 10.0 mi WNW 29.9 mph 40.3 mph N/A   Overcast
4:55 AM 25.7 °F 8.8 °F 14.9 °F 64% 30.18 in 10.0 mi WNW 31.1 mph 36.8 mph N/A   Scattered Clouds
5:15 AM 24.8 °F 9.0 °F 14.9 °F 66% 30.19 in 10.0 mi WNW 25.3 mph 32.2 mph N/A   Clear
5:35 AM 24.3 °F 8.3 °F 14.9 °F 68% 30.20 in 10.0 mi WNW 25.3 mph 31.1 mph N/A   Clear
5:55 AM 23.7 °F 6.1 °F 13.1 °F 64% 30.21 in 10.0 mi WNW 31.1 mph 43.7 mph N/A   Clear
6:15 AM 23.0 °F 5.7 °F 13.6 °F 67% 30.21 in 10.0 mi WNW 28.8 mph 35.7 mph N/A   Clear
6:35 AM 23.0 °F 5.4 °F 12.7 °F 65% 30.22 in 10.0 mi WNW 29.9 mph 40.3 mph N/A   Clear
6:55 AM 22.5 °F 3.6 °F 12.2 °F 65% 30.23 in 10.0 mi NW 34.5 mph 40.3 mph N/A   Clear
7:15 AM 22.1 °F 4.2 °F 12.2 °F 66% 30.23 in 10.0 mi NW 29.9 mph 42.6 mph N/A   Clear
7:35 AM 22.1 °F 3.9 °F 12.4 °F 66% 30.24 in 10.0 mi NW 31.1 mph 40.3 mph N/A   Mostly Cloudy
7:55 AM 22.1 °F 5.4 °F 13.1 °F 68% 30.25 in 10.0 mi NW 25.3 mph 38.0 mph N/A   Overcast
8:15 AM 22.5 °F 5.2 °F 12.7 °F 66% 30.26 in 10.0 mi NW 27.6 mph 33.4 mph N/A   Overcast
8:35 AM 22.6 °F 5.2 °F 13.1 °F 67% 30.27 in 10.0 mi NW 28.8 mph 42.6 mph N/A   Overcast
8:55 AM 23.0 °F 4.4 °F 12.4 °F 64% 30.27 in 10.0 mi NW 34.5 mph 40.3 mph N/A   Overcast
9:15 AM 23.0 °F 5.4 °F 11.8 °F 62% 30.29 in 10.0 mi NW 29.9 mph 41.4 mph N/A   Overcast
9:35 AM 23.4 °F 5.6 °F 11.8 °F 61% 30.29 in 10.0 mi NW 31.1 mph 38.0 mph N/A   Overcast
9:55 AM 23.7 °F 6.1 °F 12.0 °F 61% 30.30 in 7.0 mi NW 31.1 mph 42.6 mph N/A   Overcast
10:15 AM 24.3 °F 6.9 °F 12.4 °F 61% 30.31 in 10.0 mi NW 31.1 mph 39.1 mph N/A   Overcast
10:35 AM 23.9 °F 7.2 °F 11.5 °F 59% 30.33 in 10.0 mi WNW 27.6 mph 36.8 mph N/A   Overcast
10:55 AM 23.5 °F 7.3 °F 12.0 °F 61% 30.33 in 10.0 mi NW 25.3 mph 32.2 mph N/A   Overcast
11:35 AM 24.4 °F 8.2 °F 12.0 °F 59% 30.33 in 10.0 mi NW 26.5 mph 31.1 mph N/A   Overcast
11:55 AM 26.2 °F 10.3 °F 12.6 °F 56% 30.32 in 10.0 mi WNW 27.6 mph 34.5 mph N/A   Overcast
12:15 PM 27.0 °F 11.6 °F 12.7 °F 55% 30.33 in 10.0 mi NW 26.5 mph 32.2 mph N/A   Mostly Cloudy
12:35 PM 27.9 °F 12.8 °F 12.6 °F 53% 30.32 in 10.0 mi NW 26.5 mph 33.4 mph N/A   Mostly Cloudy
1:15 PM 30.0 °F 16.3 °F 13.1 °F 49% 30.31 in 10.0 mi NW 24.2 mph 31.1 mph N/A   Clear
1:35 PM 30.9 °F 17.8 °F 13.1 °F 48% 30.32 in 10.0 mi WNW 23.0 mph 32.2 mph N/A   Clear
1:55 PM 30.9 °F 17.2 °F 12.7 °F 47% 30.32 in 10.0 mi NW 25.3 mph 32.2 mph N/A   Clear
2:15 PM 30.9 °F 18.1 °F 12.9 °F 47% 30.32 in 10.0 mi NW 21.9 mph 32.2 mph N/A   Clear
2:35 PM 31.1 °F 17.4 °F 12.6 °F 46% 30.32 in 10.0 mi NW 25.3 mph 31.1 mph N/A   Clear
2:55 PM 31.1 °F 17.4 °F 12.4 °F 46% 30.33 in 10.0 mi NW 25.3 mph 31.1 mph N/A   Clear
3:15 PM 30.9 °F 17.5 °F 12.2 °F 46% 30.33 in 10.0 mi NW 24.2 mph - N/A   Clear
3:35 PM 30.9 °F 17.8 °F 12.0 °F 46% 30.34 in 10.0 mi NW 23.0 mph 28.8 mph N/A   Clear
3:55 PM 30.2 °F 16.8 °F 12.0 °F 47% 30.35 in 10.0 mi NW 23.0 mph 29.9 mph N/A   Clear
4:15 PM 29.3 °F 16.2 °F 12.2 °F 49% 30.35 in 10.0 mi NW 20.7 mph 26.5 mph N/A   Clear
4:35 PM 28.2 °F 14.8 °F 11.8 °F 50% 30.35 in 10.0 mi NW 20.7 mph - N/A   Clear
4:55 PM 27.0 °F 12.2 °F 12.0 °F 53% 30.35 in 10.0 mi NW 24.2 mph 28.8 mph N/A   Clear
5:15 PM 25.7 °F 12.3 °F 11.8 °F 56% 30.36 in 10.0 mi NW 18.4 mph - N/A   Clear
5:35 PM 25.3 °F 12.6 °F 12.0 °F 57% 30.36 in 10.0 mi NW 16.1 mph - N/A   Clear
6:15 PM 24.3 °F 10.8 °F 11.8 °F 59% 30.36 in 10.0 mi NW 17.3 mph - N/A   Clear
6:35 PM 23.4 °F 12.2 °F 11.8 °F 61% 30.36 in 10.0 mi NW 11.5 mph - N/A   Clear
6:55 PM 23.0 °F 10.1 °F 11.8 °F 62% 30.36 in 10.0 mi WNW 15.0 mph - N/A   Clear
7:35 PM 22.1 °F 8.0 °F 11.8 °F 65% 30.36 in 10.0 mi NW 17.3 mph 20.7 mph N/A   Clear
7:55 PM 21.9 °F 9.2 °F 11.8 °F 65% 30.36 in 10.0 mi NW 13.8 mph - N/A   Clear
8:15 PM 21.4 °F 9.1 °F 11.8 °F 67% 30.36 in 10.0 mi NW 12.7 mph - N/A   Clear
8:35 PM 21.0 °F 9.3 °F 11.8 °F 68% 30.36 in 10.0 mi NW 11.5 mph - N/A   Clear
8:55 PM 20.7 °F 7.6 °F 11.8 °F 69% 30.35 in 10.0 mi NW 13.8 mph - N/A   Clear
9:15 PM 20.1 °F 8.1 °F 11.8 °F 70% 30.35 in 10.0 mi NW 11.5 mph - N/A   Clear
9:35 PM 19.4 °F 7.9 °F 11.7 °F 72% 30.35 in 10.0 mi NW 10.4 mph - N/A   Clear
9:55 PM 19.0 °F 6.1 °F 11.7 °F 73% 30.36 in 10.0 mi NW 12.7 mph - N/A   Clear
10:15 PM 18.3 °F 7.3 °F 11.3 °F 74% 30.35 in 10.0 mi NW 9.2 mph - N/A   Clear
10:35 PM 17.6 °F 7.3 °F 11.3 °F 76% 30.35 in 10.0 mi NW 8.1 mph - N/A   Clear
10:55 PM 17.1 °F 7.6 °F 11.1 °F 77% 30.35 in 10.0 mi NW 6.9 mph - N/A   Clear
11:15 PM 16.5 °F 6.9 °F 11.1 °F 79% 30.35 in 10.0 mi WNW 6.9 mph - N/A   Clear
11:35 PM 16.5 °F 6.0 °F 11.1 °F 79% 30.34 in 10.0 mi WNW 8.1 mph - N/A   Clear
11:55 PM 16.5 °F 6.0 °F 11.1 °F 79% 30.35 in 10.0 mi NW 8.1 mph - N/A   Clear